Regional Weather Roundup
Issued by NWS New Orleans/Baton Rouge, LA

Home | Current Version | Previous Version | Graphics & Text | Print | Product List | Glossary On
Versions: 1 2 3 4 5 6 7 8 9 10 11 12 13 14 15 16 17 18 19 20 21 22 23 24 25 26 27 28 29 30 31 32 33 34 35 36 37 38 39 40 41 42 43 44 45 46 47 48 49 50
964
ASUS44 KLIX 232005
RWRLIX
NEW ORLEANS REGIONAL WEATHER ROUNDUP
NATIONAL WEATHER SERVICE NEW ORLEANS LA
300 PM CDT TUE SEP 23 2014

NOTE: "FAIR" INDICATES FEW OR NO CLOUDS BELOW 12,000 FEET WITH NO
      SIGNIFICANT WEATHER AND/OR OBSTRUCTIONS TO VISIBILITY.
      SKY/WX - SKY CONDITION AND SIGNIFICANT WEATHER.
      TMP - AIR TEMPERATURE.     DP    - DEWPOINT TEMPERATURE.
      RH  - RELATIVE HUMIDITY.   PRES  - PRESSURE.
      HI  - HEAT INDEX.          WCI   - WIND CHILL INDEX.

*  THESE STATIONS ARE NOT NWS OR FAA STATIONS AND ARE NOT UNDER
   NWS QUALITY CONTROL.

LAZ038-040-048-061>063-065>067-069-232100-
SOUTHEAST LOUISIANA

CITY           SKY/WX    TMP DP  RH WIND       PRES   REMARKS
N.O. AUDUBON   NOT AVBL
N.O. INTL ARPT MOSUNNY   83  54  36 N8        30.05F
N.O. LAKEFRONT SUNNY     84  55  36 N10       30.06F
N.O. DOWNTOWN*   N/A     84  52  32 N10       30.05F
SLIDELL        SUNNY     84  52  33 NE7       30.05F
BATON ROUGE    SUNNY     83  55  38 N9        30.07F
BOOTHVILLE     SUNNY     82  61  48 NE10G20   30.04F
BELLE CHASSE   MOSUNNY   84  52  33 NE12      30.04F
BOGALUSA*        N/A     84  50  30 N8        30.08F
GALLIANO*      NOT AVBL
NEW ROADS*       N/A     83  53  36 N8        30.08F
GONZALES*        N/A     83  56  39 NE8       30.06F
HAMMOND*       SUNNY     84  48  28 N5        30.08F
HOUMA*         SUNNY     84  10   6 N12       30.04F
PORT FOURCHON* CLEAR     81  61  50 NE16      30.07F

$$

MSZ070-080>082-232100-
SOUTHERN MISSISSIPPI

CITY           SKY/WX    TMP DP  RH WIND       PRES   REMARKS
MCCOMB         SUNNY     82  48  30 NE7       30.10F
GULFPORT       SUNNY     85  53  33 NE9       30.04F
BILOXI         SUNNY     85  55  35 E8        30.04F
PASCAGOULA     SUNNY     85  57  38 N9        30.04F
STENNIS ARPT*  SUNNY     84  43  23 NE8       30.05F

$$

COASTAL OBSERVATIONS
LAKE AND NEARSHORE STATIONS

STATION/POSITION TIME  TEMP    WIND        PRES    WAVE
                       AIR SEA DIR/SP/G            HT/PER
                 (UTC) (F)     (DEG/KT/KT) (MB)    (FT/S)
PASCAGOULA       2000   85      60/  7/ 11 1016.7
WAVELAND YACHT   2000   81      30/  7/ 10 1016.9
GRAND ISLE       2000   80 81   50/  9/ 16 1017.8
SOUTHWEST PASS   2000   88 89   60/ 15/ 17 1016.9
NEW CANAL        2000   79 80   20/ 10/ 12 1018.2
SHELL BEACH      2000   79 77   40/ 11/ 14 1017.4

OFFSHORE STATIONS

STATION/POSITION TIME  TEMP    WIND        PRES    WAVE
                       AIR SEA DIR/SP/G            HT/PER
                 (UTC) (F)     (DEG/KT/KT) (MB)    (FT/S)
64 S DAUPHIN ISL 1944   78 84   50/ 17/ 19 1017.0    4/ 6

$$




USA.gov is the U.S. government's official web portal to all federal, state and local government web resources and services.